Weather History for Oxford, NC

Change the Weather History Date:

Wednesday, January 30, 2013

  Actual Average (KTDF) Record (KTDF)
Temperature  
Mean Temperature 65 °F -  
Max Temperature 70 °F 51 °F 82 °F (2002)
Min Temperature 60 °F 26 °F 0 °F (2014)
Growing Degree Days 15 (Base 50)    
Moisture  
Dew Point 59 °F    
Average Humidity 77    
Maximum Humidity 88    
Minimum Humidity 67    
Precipitation  
Precipitation 0.01 in - - ()
Sea Level Pressure  
Sea Level Pressure 29.78 in    
Wind  
Wind Speed 15 mph (South)    
Max Wind Speed 25 mph    
Max Gust Speed 38 mph    
Visibility 10 miles    
Events Rain    
Averages and records for this station are not official NWS values.
T = Trace of Precipitation, MM = Missing Value Source: NWS Daily Summary

Daily Weather History Graph

Daily Weather History Graph

Search for Another Location

Airport:

Trip Planner

Search our weather history database for the weather conditions in past years. The results will help you decide how hot, cold, wet, or windy it might be!

Date:

Astronomy

Jan. 30, 2013 Rise Set
Actual Time 7:16 AM EST 5:38 PM EST
Civil Twilight 6:49 AM EST 6:05 PM EST
Nautical Twilight 6:18 AM EST 6:36 PM EST
Astronomical Twilight 5:48 AM EST 7:07 PM EST
Moon 9:26 PM EST (1/30) 8:51 AM EST (1/30)
Length of Visible Light 11h 16m
Length of Day
10h 21m
Waning Gibbous, 88% of the Moon is Illuminated
Jan 30
Waning Gibbous
Feb 3
Last Quarter
Feb 10
New
Feb 17
First Quarter
Feb 25
Full

Hourly Weather History & Observations

Time (EST) Temp. Dew Point Humidity Pressure Visibility Wind Dir Wind Speed Gust Speed Precip Events Conditions
12:15 AM 60.8 °F 54.1 °F 79% 30.06 in 10.0 mi South 8.1 mph - N/A   Clear
12:35 AM 60.4 °F 54.5 °F 81% 30.04 in 10.0 mi South 8.1 mph - N/A   Clear
12:55 AM 60.4 °F 54.9 °F 82% 30.05 in 10.0 mi SSW 10.4 mph - N/A   Clear
1:15 AM 61.0 °F 55.0 °F 81% 30.03 in 10.0 mi South 11.5 mph - N/A   Clear
1:35 AM 60.8 °F 55.4 °F 82% 30.03 in 10.0 mi South 10.4 mph - N/A   Clear
1:55 AM 61.2 °F 55.8 °F 82% 30.03 in 10.0 mi SSW 12.7 mph - N/A   Clear
2:15 AM 61.3 °F 56.3 °F 83% 30.02 in 10.0 mi SSW 16.1 mph - N/A   Clear
2:55 AM 61.2 °F 57.4 °F 87% 30.00 in 10.0 mi South 10.4 mph - N/A   Scattered Clouds
3:15 AM 61.7 °F 57.7 °F 87% 30.00 in 10.0 mi SSW 16.1 mph 20.7 mph N/A   Overcast
3:35 AM 61.7 °F 58.1 °F 88% 29.99 in 10.0 mi South 13.8 mph 18.4 mph N/A   Overcast
3:55 AM 62.4 °F 58.6 °F 87% 29.99 in 10.0 mi SSW 12.7 mph 18.4 mph N/A   Overcast
4:15 AM 62.2 °F 58.6 °F 88% 29.98 in 10.0 mi South 16.1 mph 20.7 mph N/A   Overcast
4:35 AM 62.8 °F 59.0 °F 87% 29.97 in 10.0 mi SSW 15.0 mph 20.7 mph N/A   Overcast
4:55 AM 62.8 °F 59.0 °F 87% 29.97 in 10.0 mi South 13.8 mph 21.9 mph N/A   Overcast
5:15 AM 63.1 °F 59.2 °F 87% 29.97 in 10.0 mi SSW 13.8 mph 19.6 mph N/A   Overcast
5:35 AM 63.5 °F 59.2 °F 86% 29.96 in 10.0 mi SSW 13.8 mph 20.7 mph N/A   Overcast
5:55 AM 63.5 °F 59.2 °F 86% 29.95 in 10.0 mi South 17.3 mph - N/A   Overcast
6:15 AM 63.7 °F 59.4 °F 86% 29.94 in 10.0 mi South 18.4 mph 24.2 mph N/A   Overcast
6:35 AM 64.4 °F 59.4 °F 84% 29.94 in 10.0 mi South 18.4 mph 25.3 mph N/A   Overcast
6:55 AM 64.4 °F 59.2 °F 83% 29.94 in 10.0 mi SSW 15.0 mph 23.0 mph N/A   Overcast
7:15 AM 64.4 °F 59.4 °F 84% 29.94 in 10.0 mi South 17.3 mph 25.3 mph N/A   Overcast
7:35 AM 64.4 °F 59.5 °F 84% 29.94 in 10.0 mi South 16.1 mph 23.0 mph N/A   Overcast
7:55 AM 64.4 °F 59.5 °F 84% 29.93 in 10.0 mi South 13.8 mph 21.9 mph N/A   Overcast
8:15 AM 64.8 °F 59.5 °F 83% 29.93 in 10.0 mi South 16.1 mph 21.9 mph N/A   Overcast
8:35 AM 64.9 °F 59.9 °F 84% 29.92 in 10.0 mi South 11.5 mph 20.7 mph N/A   Overcast
8:55 AM 65.1 °F 59.7 °F 83% 29.91 in 10.0 mi South 11.5 mph 17.3 mph N/A   Overcast
9:15 AM 65.5 °F 59.5 °F 81% 29.91 in 10.0 mi South 10.4 mph 23.0 mph N/A   Overcast
9:35 AM 65.8 °F 59.9 °F 81% 29.90 in 10.0 mi South 12.7 mph 21.9 mph N/A   Overcast
9:55 AM 66.6 °F 59.5 °F 78% 29.89 in 10.0 mi South 16.1 mph 25.3 mph N/A   Overcast
10:15 AM 67.1 °F 59.5 °F 77% 29.88 in 10.0 mi South 18.4 mph 27.6 mph N/A   Overcast
10:35 AM 67.1 °F 59.4 °F 76% 29.89 in 10.0 mi South 16.1 mph 23.0 mph N/A   Overcast
10:55 AM 67.5 °F 59.4 °F 75% 29.88 in 10.0 mi SSW 16.1 mph 28.8 mph N/A   Overcast
11:15 AM 68.2 °F 59.7 °F 74% 29.87 in 10.0 mi SSW 18.4 mph 31.1 mph N/A   Overcast
11:35 AM 68.0 °F 59.9 °F 75% 29.86 in 10.0 mi SSW 18.4 mph 27.6 mph N/A   Overcast
11:55 AM 68.0 °F 59.9 °F 75% 29.84 in 10.0 mi South 13.8 mph 20.7 mph N/A   Overcast
12:15 PM 68.4 °F 59.9 °F 74% 29.82 in 10.0 mi South 15.0 mph 26.5 mph N/A   Overcast
12:35 PM 68.4 °F 60.1 °F 75% 29.80 in 10.0 mi South 15.0 mph 21.9 mph N/A   Overcast
12:55 PM 68.4 °F 60.1 °F 75% 29.78 in 10.0 mi South 15.0 mph 29.9 mph N/A   Overcast
1:15 PM 68.4 °F 60.1 °F 75% 29.77 in 10.0 mi South 15.0 mph 26.5 mph N/A   Overcast
1:35 PM 68.2 °F 60.3 °F 76% 29.77 in 7.0 mi South 19.6 mph 32.2 mph N/A   Overcast
1:55 PM 68.0 °F 60.8 °F 78% 29.75 in 10.0 mi South 18.4 mph 31.1 mph N/A   Overcast
2:15 PM 68.2 °F 60.8 °F 77% 29.74 in 10.0 mi South 13.8 mph 26.5 mph N/A   Overcast
2:35 PM 68.2 °F 60.4 °F 76% 29.72 in 10.0 mi South 17.3 mph 25.3 mph N/A   Overcast
2:55 PM 68.4 °F 60.8 °F 77% 29.71 in 10.0 mi South 18.4 mph 29.9 mph N/A   Overcast
3:15 PM 68.5 °F 60.6 °F 76% 29.70 in 10.0 mi South 15.0 mph 26.5 mph N/A   Overcast
3:35 PM 68.9 °F 60.3 °F 74% 29.68 in 10.0 mi South 18.4 mph 27.6 mph N/A   Overcast
3:55 PM 69.1 °F 60.3 °F 73% 29.68 in 10.0 mi South 17.3 mph 26.5 mph N/A   Overcast
4:15 PM 69.4 °F 59.9 °F 72% 29.67 in 10.0 mi South 19.6 mph 27.6 mph N/A   Overcast
4:35 PM 70.7 °F 59.9 °F 69% 29.66 in 10.0 mi South 16.1 mph 26.5 mph N/A   Mostly Cloudy
4:55 PM 70.7 °F 59.4 °F 67% 29.65 in 10.0 mi South 20.7 mph 28.8 mph N/A   Mostly Cloudy
5:15 PM 70.3 °F 59.0 °F 67% 29.64 in 10.0 mi South 18.4 mph 31.1 mph N/A   Overcast
5:35 PM 70.0 °F 59.0 °F 68% 29.62 in 10.0 mi South 21.9 mph 31.1 mph N/A   Mostly Cloudy
5:55 PM 69.8 °F 58.6 °F 68% 29.62 in 10.0 mi South 18.4 mph 27.6 mph N/A   Mostly Cloudy
6:15 PM 69.8 °F 58.6 °F 68% 29.62 in 10.0 mi South 16.1 mph 26.5 mph N/A   Overcast
6:35 PM 69.6 °F 58.5 °F 68% 29.60 in 10.0 mi South 20.7 mph 29.9 mph N/A   Overcast
6:55 PM 69.4 °F 58.1 °F 67% 29.58 in 10.0 mi South 16.1 mph 32.2 mph N/A   Overcast
7:15 PM 69.3 °F 58.1 °F 68% 29.56 in 10.0 mi South 23.0 mph 31.1 mph N/A   Mostly Cloudy
7:35 PM 69.1 °F 57.7 °F 67% 29.56 in 10.0 mi South 19.6 mph 27.6 mph N/A   Overcast
7:55 PM 69.3 °F 57.7 °F 67% 29.53 in 10.0 mi South 18.4 mph 33.4 mph N/A   Mostly Cloudy
8:15 PM 69.1 °F 57.7 °F 67% 29.52 in 10.0 mi South 23.0 mph 34.5 mph N/A   Overcast
8:35 PM 68.9 °F 57.7 °F 68% 29.51 in 10.0 mi South 21.9 mph 38.0 mph N/A   Overcast
8:55 PM 68.9 °F 57.7 °F 68% 29.51 in 10.0 mi South 21.9 mph 34.5 mph N/A   Overcast
9:15 PM 69.3 °F 58.1 °F 68% 29.48 in 10.0 mi South 19.6 mph 38.0 mph N/A   Overcast
9:35 PM 69.3 °F 58.3 °F 68% 29.46 in 10.0 mi South 25.3 mph 35.7 mph N/A   Overcast
9:55 PM 69.4 °F 58.6 °F 68% 29.45 in 10.0 mi South 19.6 mph 26.5 mph N/A   Overcast
10:15 PM 68.4 °F 59.4 °F 73% 29.43 in 10.0 mi South 24.2 mph 38.0 mph N/A Rain Light Rain
10:35 PM 67.5 °F 60.1 °F 77% 29.42 in 7.0 mi South 23.0 mph 33.4 mph N/A Rain Light Rain
10:55 PM 66.6 °F 60.8 °F 82% 29.41 in 7.0 mi South 20.7 mph 31.1 mph N/A Rain Light Rain
11:15 PM 67.1 °F 60.8 °F 80% 29.39 in 10.0 mi South 24.2 mph 32.2 mph 0.01 in Rain Light Rain
11:35 PM - - N/A% - - North - - N/A   Unknown
11:55 PM - - N/A% - - North - - N/A   Unknown